Time,TemperatureF,DewpointF,PressureIn,WindDirection,WindDirectionDegrees,WindSpeedMPH,WindSpeedGustMPH,Humidity,HourlyPrecipIn,Conditions,Clouds,dailyrainin,SoftwareType,DateUTC
2013-03-03 00:00:00,36.7,27.1,29.63,NW,308,2.0,4.0,68,0.00,,OVC046,0.00,VWS V14.01,2013-03-03 05:00:00,
2013-03-03 00:05:00,36.7,27.5,29.63,NNE,13,0.0,8.0,69,0.00,,OVC046,0.00,VWS V14.01,2013-03-03 05:05:00,
2013-03-03 00:10:00,36.6,27.4,29.64,North,5,1.0,1.0,69,0.00,,OVC046,0.00,VWS V14.01,2013-03-03 05:10:00,
2013-03-03 00:15:00,36.5,27.3,29.64,NNE,23,0.0,3.0,69,0.00,,OVC046,0.00,VWS V14.01,2013-03-03 05:15:00,
2013-03-03 00:20:00,36.5,27.3,29.64,NNW,333,6.0,8.0,69,0.00,,OVC046,0.00,VWS V14.01,2013-03-03 05:20:00,
2013-03-03 00:25:00,36.4,26.9,29.64,NNE,16,3.0,9.0,68,0.00,,OVC046,0.00,VWS V14.01,2013-03-03 05:25:00,
2013-03-03 00:30:00,36.4,26.9,29.64,WNW,302,2.0,6.0,68,0.00,,OVC046,0.00,VWS V14.01,2013-03-03 05:30:00,
2013-03-03 00:35:00,36.3,26.8,29.64,West,276,3.0,8.0,68,0.00,,OVC046,0.00,VWS V14.01,2013-03-03 05:35:00,
2013-03-03 00:40:00,36.3,26.8,29.64,North,350,2.0,3.0,68,0.00,,OVC046,0.00,VWS V14.01,2013-03-03 05:40:00,
2013-03-03 00:45:00,36.2,26.7,29.64,NW,306,4.0,7.0,68,0.00,,OVC046,0.00,VWS V14.01,2013-03-03 05:45:00,
2013-03-03 00:50:00,36.1,26.6,29.64,NW,315,3.0,5.0,68,0.00,,OVC046,0.00,VWS V14.01,2013-03-03 05:50:00,
2013-03-03 00:55:00,36.1,26.2,29.64,North,350,1.0,6.0,67,0.00,,OVC046,0.00,VWS V14.01,2013-03-03 05:55:00,
2013-03-03 01:00:00,36.0,26.1,29.64,NNE,28,4.0,4.0,67,0.00,,OVC048,0.00,VWS V14.01,2013-03-03 06:00:00,
2013-03-03 01:05:00,36.0,26.5,29.64,NW,311,6.0,6.0,68,0.00,,OVC048,0.00,VWS V14.01,2013-03-03 06:05:00,
2013-03-03 01:10:00,35.9,26.4,29.64,NNE,26,1.0,2.0,68,0.00,,OVC048,0.00,VWS V14.01,2013-03-03 06:10:00,
2013-03-03 01:15:00,35.8,26.3,29.64,NNW,337,1.0,7.0,68,0.00,,OVC048,0.00,VWS V14.01,2013-03-03 06:15:00,
2013-03-03 01:20:00,35.7,26.5,29.64,North,4,0.0,1.0,69,0.00,,OVC048,0.00,VWS V14.01,2013-03-03 06:20:00,
2013-03-03 01:25:00,35.7,26.2,29.64,NNE,15,2.0,4.0,68,0.00,,OVC048,0.00,VWS V14.01,2013-03-03 06:25:00,
2013-03-03 01:30:00,35.7,26.5,29.64,NNE,23,0.0,1.0,69,0.00,,OVC048,0.00,VWS V14.01,2013-03-03 06:30:00,
2013-03-03 01:35:00,35.6,26.5,29.64,NW,325,0.0,2.0,69,0.00,,OVC048,0.00,VWS V14.01,2013-03-03 06:35:00,
2013-03-03 01:40:00,35.5,26.4,29.64,NNW,330,6.0,6.0,69,0.00,,OVC048,0.00,VWS V14.01,2013-03-03 06:40:00,
2013-03-03 01:45:00,35.5,26.4,29.64,WNW,283,0.0,7.0,69,0.00,,OVC048,0.00,VWS V14.01,2013-03-03 06:45:00,
2013-03-03 01:50:00,35.5,26.4,29.64,North,1,0.0,3.0,69,0.00,,OVC048,0.00,VWS V14.01,2013-03-03 06:50:00,
2013-03-03 01:55:00,35.3,26.5,29.64,NW,319,2.0,8.0,70,0.00,,OVC048,0.00,VWS V14.01,2013-03-03 06:55:00,
2013-03-03 02:00:00,35.2,26.4,29.63,NW,315,3.0,4.0,70,0.00,,OVC048,0.00,VWS V14.01,2013-03-03 07:00:00,
2013-03-03 02:05:00,35.2,26.4,29.63,NNW,329,2.0,7.0,70,0.00,,OVC048,0.00,VWS V14.01,2013-03-03 07:05:00,
2013-03-03 02:10:00,35.2,26.4,29.63,NW,326,2.0,2.0,70,0.00,,OVC048,0.00,VWS V14.01,2013-03-03 07:10:00,
2013-03-03 02:15:00,35.1,26.3,29.63,NNE,26,5.0,6.0,70,0.00,,OVC048,0.00,VWS V14.01,2013-03-03 07:15:00,
2013-03-03 02:20:00,35.1,26.3,29.63,NW,304,3.0,4.0,70,0.00,,OVC048,0.00,VWS V14.01,2013-03-03 07:20:00,
2013-03-03 02:25:00,35.0,26.2,29.62,North,350,0.0,5.0,70,0.00,,OVC048,0.00,VWS V14.01,2013-03-03 07:25:00,
2013-03-03 02:30:00,34.9,26.5,29.62,NW,315,0.0,0.0,71,0.00,,OVC048,0.00,VWS V14.01,2013-03-03 07:30:00,
2013-03-03 02:35:00,34.9,26.5,29.62,WNW,302,1.0,2.0,71,0.00,,OVC048,0.00,VWS V14.01,2013-03-03 07:35:00,
2013-03-03 02:40:00,34.9,26.5,29.62,NW,322,0.0,1.0,71,0.00,,OVC048,0.00,VWS V14.01,2013-03-03 07:40:00,
2013-03-03 02:45:00,34.8,26.7,29.62,WNW,303,3.0,3.0,72,0.00,,OVC048,0.00,VWS V14.01,2013-03-03 07:45:00,
2013-03-03 02:50:00,34.8,26.4,29.62,NNW,339,0.0,1.0,71,0.00,,OVC048,0.00,VWS V14.01,2013-03-03 07:50:00,
2013-03-03 02:55:00,34.8,26.4,29.62,North,351,0.0,4.0,71,0.00,,OVC048,0.00,VWS V14.01,2013-03-03 07:55:00,
2013-03-03 03:00:00,34.7,26.6,29.62,North,4,0.0,0.0,72,0.00,,OVC044,0.00,VWS V14.01,2013-03-03 08:00:00,
2013-03-03 03:05:00,34.7,26.6,29.62,NW,321,2.0,3.0,72,0.00,,OVC044,0.00,VWS V14.01,2013-03-03 08:05:00,
2013-03-03 03:10:00,34.7,26.6,29.62,NW,310,1.0,2.0,72,0.00,,OVC044,0.00,VWS V14.01,2013-03-03 08:10:00,
2013-03-03 03:15:00,34.7,26.6,29.62,NW,307,2.0,3.0,72,0.00,,OVC044,0.00,VWS V14.01,2013-03-03 08:15:00,
2013-03-03 03:20:00,34.6,26.9,29.62,WNW,288,0.0,0.0,73,0.00,,OVC044,0.00,VWS V14.01,2013-03-03 08:20:00,
2013-03-03 03:25:00,34.6,26.9,29.62,North,351,0.0,4.0,73,0.00,,OVC044,0.00,VWS V14.01,2013-03-03 08:25:00,
2013-03-03 03:30:00,34.5,26.8,29.62,NNW,333,0.0,0.0,73,0.00,,OVC044,0.00,VWS V14.01,2013-03-03 08:30:00,
2013-03-03 03:35:00,34.5,26.8,29.62,West,278,2.0,3.0,73,0.00,,OVC044,0.00,VWS V14.01,2013-03-03 08:35:00,
2013-03-03 03:40:00,34.5,26.8,29.62,WNW,298,2.0,3.0,73,0.00,,OVC044,0.00,VWS V14.01,2013-03-03 08:40:00,
2013-03-03 03:45:00,34.5,26.8,29.62,NW,310,4.0,6.0,73,0.00,,OVC044,0.00,VWS V14.01,2013-03-03 08:45:00,
2013-03-03 03:50:00,34.4,26.7,29.62,North,7,2.0,5.0,73,0.00,,OVC044,0.00,VWS V14.01,2013-03-03 08:50:00,
2013-03-03 03:55:00,34.4,27.0,29.62,NW,307,1.0,5.0,74,0.00,,OVC044,0.00,VWS V14.01,2013-03-03 08:55:00,
2013-03-03 04:00:00,34.4,27.0,29.62,NW,309,1.0,2.0,74,0.00,,OVC044,0.00,VWS V14.01,2013-03-03 09:00:00,
2013-03-03 04:05:00,34.3,26.9,29.62,NNW,329,1.0,6.0,74,0.00,,OVC044,0.00,VWS V14.01,2013-03-03 09:05:00,
2013-03-03 04:10:00,34.3,26.9,29.62,West,278,0.0,4.0,74,0.00,,OVC044,0.00,VWS V14.01,2013-03-03 09:10:00,
2013-03-03 04:15:00,34.3,26.9,29.62,WNW,292,1.0,8.0,74,0.00,,OVC044,0.00,VWS V14.01,2013-03-03 09:15:00,
2013-03-03 04:20:00,34.3,26.9,29.62,NW,326,1.0,1.0,74,0.00,,OVC044,0.00,VWS V14.01,2013-03-03 09:20:00,
2013-03-03 04:25:00,34.2,26.8,29.62,NW,322,1.0,5.0,74,0.00,,OVC044,0.00,VWS V14.01,2013-03-03 09:25:00,
2013-03-03 04:30:00,34.2,26.8,29.62,WNW,288,1.0,4.0,74,0.00,,OVC044,0.00,VWS V14.01,2013-03-03 09:30:00,
2013-03-03 04:35:00,34.2,26.8,29.62,NNW,339,3.0,4.0,74,0.00,,OVC044,0.00,VWS V14.01,2013-03-03 09:35:00,
2013-03-03 04:40:00,34.1,26.7,29.62,WNW,302,4.0,7.0,74,0.00,,OVC044,0.00,VWS V14.01,2013-03-03 09:40:00,
2013-03-03 04:45:00,34.1,26.7,29.62,NE,34,0.0,7.0,74,0.00,,OVC044,0.00,VWS V14.01,2013-03-03 09:45:00,
2013-03-03 04:50:00,34.1,26.7,29.62,NW,308,5.0,6.0,74,0.00,,OVC044,0.00,VWS V14.01,2013-03-03 09:50:00,
2013-03-03 04:55:00,34.0,26.9,29.62,NW,305,2.0,6.0,75,0.00,,OVC044,0.00,VWS V14.01,2013-03-03 09:55:00,
2013-03-03 05:00:00,34.0,26.9,29.62,West,266,2.0,3.0,75,0.00,,OVC044,0.00,VWS V14.01,2013-03-03 10:00:00,
2013-03-03 05:05:00,33.9,26.8,29.62,WNW,285,1.0,3.0,75,0.00,,OVC044,0.00,VWS V14.01,2013-03-03 10:05:00,
2013-03-03 05:10:00,33.9,27.1,29.62,WNW,285,1.0,4.0,76,0.00,,OVC044,0.00,VWS V14.01,2013-03-03 10:10:00,
2013-03-03 05:15:00,33.8,27.0,29.62,NW,315,4.0,5.0,76,0.00,,OVC044,0.00,VWS V14.01,2013-03-03 10:15:00,
2013-03-03 05:20:00,33.8,27.4,29.62,NW,305,1.0,3.0,77,0.00,,OVC044,0.00,VWS V14.01,2013-03-03 10:20:00,
2013-03-03 05:25:00,33.7,27.3,29.62,NW,319,3.0,4.0,77,0.00,,OVC044,0.00,VWS V14.01,2013-03-03 10:25:00,
2013-03-03 05:30:00,33.7,27.3,29.62,NW,317,0.0,3.0,77,0.00,,OVC044,0.00,VWS V14.01,2013-03-03 10:30:00,
2013-03-03 05:35:00,33.6,27.2,29.63,WNW,290,5.0,6.0,77,0.00,,OVC044,0.00,VWS V14.01,2013-03-03 10:35:00,
2013-03-03 05:40:00,33.5,27.1,29.63,North,349,3.0,5.0,77,0.00,,OVC044,0.00,VWS V14.01,2013-03-03 10:40:00,
2013-03-03 05:45:00,33.5,27.1,29.63,West,280,2.0,5.0,77,0.00,,OVC044,0.00,VWS V14.01,2013-03-03 10:45:00,
2013-03-03 05:50:00,33.4,27.0,29.63,West,281,3.0,6.0,77,0.00,,OVC044,0.00,VWS V14.01,2013-03-03 10:50:00,
2013-03-03 05:55:00,33.3,26.9,29.63,NNW,327,3.0,7.0,77,0.00,,OVC044,0.00,VWS V14.01,2013-03-03 10:55:00,
2013-03-03 06:00:00,33.3,26.9,29.63,WNW,300,0.0,3.0,77,0.00,,OVC046,0.00,VWS V14.01,2013-03-03 11:00:00,
2013-03-03 06:05:00,33.3,26.9,29.63,West,273,6.0,6.0,77,0.00,,OVC046,0.00,VWS V14.01,2013-03-03 11:05:00,
2013-03-03 06:10:00,33.2,26.8,29.63,WNW,282,5.0,6.0,77,0.00,,OVC046,0.00,VWS V14.01,2013-03-03 11:10:00,
2013-03-03 06:15:00,33.2,26.5,29.63,NNW,330,4.0,6.0,76,0.00,,OVC046,0.00,VWS V14.01,2013-03-03 11:15:00,
2013-03-03 06:20:00,33.2,26.8,29.63,WNW,300,1.0,1.0,77,0.00,,OVC046,0.00,VWS V14.01,2013-03-03 11:20:00,
2013-03-03 06:25:00,33.1,26.4,29.63,NNW,346,4.0,6.0,76,0.00,,OVC046,0.00,VWS V14.01,2013-03-03 11:25:00,
2013-03-03 06:30:00,33.1,26.4,29.63,WNW,283,1.0,1.0,76,0.00,,OVC046,0.00,VWS V14.01,2013-03-03 11:30:00,
2013-03-03 06:35:00,33.1,26.4,29.64,NW,318,2.0,7.0,76,0.00,,OVC046,0.00,VWS V14.01,2013-03-03 11:35:00,
2013-03-03 06:40:00,33.0,26.3,29.64,NW,304,0.0,3.0,76,0.00,,OVC046,0.00,VWS V14.01,2013-03-03 11:40:00,
2013-03-03 06:45:00,33.0,26.3,29.64,SW,233,1.0,5.0,76,0.00,,OVC046,0.00,VWS V14.01,2013-03-03 11:45:00,
2013-03-03 06:50:00,33.0,26.3,29.64,West,278,1.0,3.0,76,0.00,,OVC046,0.00,VWS V14.01,2013-03-03 11:50:00,
2013-03-03 06:55:00,33.0,26.3,29.64,WNW,297,2.0,5.0,76,0.00,,OVC046,0.00,VWS V14.01,2013-03-03 11:55:00,
2013-03-03 07:00:00,33.0,26.3,29.64,NW,326,1.0,2.0,76,0.00,,OVC046,0.00,VWS V14.01,2013-03-03 12:00:00,
2013-03-03 07:05:00,33.0,26.3,29.64,WNW,302,5.0,5.0,76,0.00,,OVC046,0.00,VWS V14.01,2013-03-03 12:05:00,
2013-03-03 07:10:00,33.0,26.0,29.64,NNE,27,4.0,6.0,75,0.00,,OVC046,0.00,VWS V14.01,2013-03-03 12:10:00,
2013-03-03 07:15:00,33.0,26.0,29.64,WNW,300,5.0,6.0,75,0.00,,OVC046,0.00,VWS V14.01,2013-03-03 12:15:00,
2013-03-03 07:20:00,33.1,26.0,29.64,WNW,291,1.0,1.0,75,0.00,,OVC046,0.00,VWS V14.01,2013-03-03 12:20:00,
2013-03-03 07:25:00,33.0,26.0,29.64,WNW,291,2.0,6.0,75,0.00,,OVC046,0.00,VWS V14.01,2013-03-03 12:25:00,
2013-03-03 07:30:00,33.1,26.0,29.64,NW,319,2.0,2.0,75,0.00,,OVC046,0.00,VWS V14.01,2013-03-03 12:30:00,
2013-03-03 07:35:00,33.1,26.0,29.64,WNW,296,0.0,5.0,75,0.00,,OVC046,0.00,VWS V14.01,2013-03-03 12:35:00,
2013-03-03 07:40:00,33.2,26.1,29.64,NW,305,2.0,3.0,75,0.00,,OVC046,0.00,VWS V14.01,2013-03-03 12:40:00,
2013-03-03 07:45:00,33.2,26.1,29.64,NNW,331,3.0,8.0,75,0.00,,OVC046,0.00,VWS V14.01,2013-03-03 12:45:00,
2013-03-03 07:50:00,33.2,25.8,29.64,NW,304,3.0,4.0,74,0.00,,OVC046,0.00,VWS V14.01,2013-03-03 12:50:00,
2013-03-03 07:55:00,33.3,25.9,29.64,WNW,290,4.0,8.0,74,0.00,,OVC046,0.00,VWS V14.01,2013-03-03 12:55:00,
2013-03-03 08:00:00,33.3,25.9,29.64,NW,323,3.0,4.0,74,0.00,,OVC048,0.00,VWS V14.01,2013-03-03 13:00:00,
2013-03-03 08:05:00,33.3,25.6,29.64,NW,317,5.0,8.0,73,0.00,,OVC048,0.00,VWS V14.01,2013-03-03 13:05:00,
2013-03-03 08:10:00,33.5,26.1,29.64,North,352,2.0,2.0,74,0.00,,OVC048,0.00,VWS V14.01,2013-03-03 13:10:00,
2013-03-03 08:15:00,33.7,26.0,29.64,West,278,4.0,4.0,73,0.00,,OVC048,0.00,VWS V14.01,2013-03-03 13:15:00,
2013-03-03 08:20:00,33.7,26.0,29.64,WNW,292,0.0,1.0,73,0.00,,OVC048,0.00,VWS V14.01,2013-03-03 13:20:00,
2013-03-03 08:25:00,33.8,26.1,29.64,NW,304,3.0,6.0,73,0.00,,OVC048,0.00,VWS V14.01,2013-03-03 13:25:00,
2013-03-03 08:30:00,33.9,26.2,29.64,West,277,2.0,5.0,73,0.00,,OVC048,0.00,VWS V14.01,2013-03-03 13:30:00,
2013-03-03 08:35:00,34.1,26.0,29.64,NW,323,4.0,6.0,72,0.00,,OVC048,0.00,VWS V14.01,2013-03-03 13:35:00,
2013-03-03 08:40:00,34.1,26.0,29.64,NW,323,5.0,5.0,72,0.00,,OVC048,0.00,VWS V14.01,2013-03-03 13:40:00,
2013-03-03 08:45:00,34.1,26.0,29.63,NW,317,3.0,8.0,72,0.00,,OVC048,0.00,VWS V14.01,2013-03-03 13:45:00,
2013-03-03 08:50:00,34.3,26.2,29.63,NW,312,6.0,6.0,72,0.00,,OVC048,0.00,VWS V14.01,2013-03-03 13:50:00,
2013-03-03 08:55:00,34.4,26.3,29.63,NNE,23,4.0,6.0,72,0.00,,OVC048,0.00,VWS V14.01,2013-03-03 13:55:00,
2013-03-03 09:00:00,34.5,26.1,29.63,WNW,287,3.0,5.0,71,0.00,,OVC048,0.00,VWS V14.01,2013-03-03 14:00:00,
2013-03-03 09:05:00,34.5,26.1,29.63,North,4,1.0,6.0,71,0.00,,OVC048,0.00,VWS V14.01,2013-03-03 14:05:00,
2013-03-03 09:10:00,34.7,26.3,29.63,NNW,333,5.0,5.0,71,0.00,,OVC048,0.00,VWS V14.01,2013-03-03 14:10:00,
2013-03-03 09:15:00,34.9,26.5,29.63,NW,324,4.0,7.0,71,0.00,,OVC048,0.00,VWS V14.01,2013-03-03 14:15:00,
2013-03-03 09:20:00,34.8,26.4,29.63,WNW,294,3.0,4.0,71,0.00,,OVC048,0.00,VWS V14.01,2013-03-03 14:20:00,
2013-03-03 09:25:00,34.8,26.0,29.63,NW,325,5.0,8.0,70,0.00,,OVC048,0.00,VWS V14.01,2013-03-03 14:25:00,
2013-03-03 09:30:00,34.9,26.5,29.63,WNW,285,3.0,7.0,71,0.00,,OVC048,0.00,VWS V14.01,2013-03-03 14:30:00,
2013-03-03 09:35:00,35.2,26.8,29.63,WNW,285,4.0,8.0,71,0.00,,OVC048,0.00,VWS V14.01,2013-03-03 14:35:00,
2013-03-03 09:40:00,35.3,26.5,29.62,West,274,3.0,5.0,70,0.00,,OVC048,0.00,VWS V14.01,2013-03-03 14:40:00,
2013-03-03 09:45:00,35.4,26.6,29.62,WNW,290,3.0,5.0,70,0.00,,OVC048,0.00,VWS V14.01,2013-03-03 14:45:00,
2013-03-03 09:50:00,35.8,27.0,29.62,NNW,329,2.0,3.0,70,0.00,,OVC048,0.00,VWS V14.01,2013-03-03 14:50:00,
2013-03-03 09:55:00,35.9,27.1,29.62,NE,36,4.0,7.0,70,0.00,,OVC048,0.00,VWS V14.01,2013-03-03 14:55:00,
2013-03-03 10:00:00,36.1,26.9,29.62,NNE,27,1.0,1.0,69,0.00,,OVC065,0.00,VWS V14.01,2013-03-03 15:00:00,
2013-03-03 10:05:00,36.5,27.3,29.62,WNW,302,0.0,5.0,69,0.00,,OVC065,0.00,VWS V14.01,2013-03-03 15:05:00,
2013-03-03 10:10:00,36.4,27.2,29.62,WNW,297,0.0,3.0,69,0.00,,OVC065,0.00,VWS V14.01,2013-03-03 15:10:00,
2013-03-03 10:15:00,36.5,27.3,29.62,WNW,296,3.0,7.0,69,0.00,,OVC065,0.00,VWS V14.01,2013-03-03 15:15:00,
2013-03-03 10:20:00,36.5,27.3,29.62,WSW,250,3.0,5.0,69,0.00,,OVC065,0.00,VWS V14.01,2013-03-03 15:20:00,
2013-03-03 10:25:00,36.9,27.3,29.61,WSW,253,3.0,7.0,68,0.00,,OVC065,0.00,VWS V14.01,2013-03-03 15:25:00,
2013-03-03 10:30:00,36.8,27.2,29.61,West,280,4.0,5.0,68,0.00,,OVC065,0.00,VWS V14.01,2013-03-03 15:30:00,
2013-03-03 10:35:00,36.7,27.1,29.61,NW,309,1.0,6.0,68,0.00,,OVC065,0.00,VWS V14.01,2013-03-03 15:35:00,
2013-03-03 10:40:00,37.0,27.4,29.61,NW,318,3.0,4.0,68,0.00,,OVC065,0.00,VWS V14.01,2013-03-03 15:40:00,
2013-03-03 10:45:00,37.3,27.4,29.61,NNW,331,2.0,6.0,67,0.00,,OVC065,0.00,VWS V14.01,2013-03-03 15:45:00,
2013-03-03 10:50:00,37.3,27.4,29.61,NNE,13,0.0,6.0,67,0.00,,OVC065,0.00,VWS V14.01,2013-03-03 15:50:00,
2013-03-03 10:55:00,37.6,27.3,29.61,NNE,22,1.0,6.0,66,0.00,,OVC065,0.00,VWS V14.01,2013-03-03 15:55:00,
2013-03-03 11:00:00,37.6,27.3,29.61,NW,319,2.0,2.0,66,0.00,,BKN060,0.00,VWS V14.01,2013-03-03 16:00:00,
2013-03-03 11:05:00,37.7,27.4,29.61,NW,316,2.0,5.0,66,0.00,,BKN060,0.00,VWS V14.01,2013-03-03 16:05:00,
2013-03-03 11:10:00,37.7,27.4,29.61,WNW,294,4.0,4.0,66,0.00,,BKN060,0.00,VWS V14.01,2013-03-03 16:10:00,
2013-03-03 11:15:00,37.9,27.6,29.61,WNW,302,3.0,6.0,66,0.00,,BKN060,0.00,VWS V14.01,2013-03-03 16:15:00,
2013-03-03 11:20:00,37.9,27.2,29.61,NW,305,0.0,2.0,65,0.00,,BKN060,0.00,VWS V14.01,2013-03-03 16:20:00,
2013-03-03 11:25:00,37.9,27.6,29.61,NW,316,5.0,5.0,66,0.00,,BKN060,0.00,VWS V14.01,2013-03-03 16:25:00,
2013-03-03 11:30:00,38.1,27.4,29.60,NNW,328,3.0,5.0,65,0.00,,BKN060,0.00,VWS V14.01,2013-03-03 16:30:00,
2013-03-03 11:35:00,38.2,27.1,29.60,SSW,196,0.0,5.0,64,0.00,,BKN060,0.00,VWS V14.01,2013-03-03 16:35:00,
2013-03-03 11:40:00,38.2,27.5,29.60,West,274,3.0,4.0,65,0.00,,BKN060,0.00,VWS V14.01,2013-03-03 16:40:00,
2013-03-03 11:45:00,38.1,27.4,29.60,WNW,288,0.0,7.0,65,0.00,,BKN060,0.00,VWS V14.01,2013-03-03 16:45:00,
2013-03-03 11:50:00,38.4,27.7,29.60,WNW,300,5.0,5.0,65,0.00,,BKN060,0.00,VWS V14.01,2013-03-03 16:50:00,
2013-03-03 11:55:00,38.8,27.3,29.60,West,262,5.0,6.0,63,0.00,,BKN060,0.00,VWS V14.01,2013-03-03 16:55:00,
2013-03-03 12:00:00,38.6,27.1,29.59,West,277,6.0,6.0,63,0.00,,BKN065,0.00,VWS V14.01,2013-03-03 17:00:00,
2013-03-03 12:05:00,38.7,27.2,29.59,WNW,284,4.0,9.0,63,0.00,,BKN065,0.00,VWS V14.01,2013-03-03 17:05:00,
2013-03-03 12:10:00,38.5,26.6,29.59,NW,323,0.0,3.0,62,0.00,,BKN065,0.00,VWS V14.01,2013-03-03 17:10:00,
2013-03-03 12:15:00,39.0,27.1,29.59,WNW,290,2.0,4.0,62,0.00,,BKN065,0.00,VWS V14.01,2013-03-03 17:15:00,
2013-03-03 12:20:00,39.4,27.1,29.59,West,264,5.0,8.0,61,0.00,,BKN065,0.00,VWS V14.01,2013-03-03 17:20:00,
2013-03-03 12:25:00,39.3,27.4,29.59,South,169,2.0,8.0,62,0.00,,BKN065,0.00,VWS V14.01,2013-03-03 17:25:00,
2013-03-03 12:30:00,39.5,27.6,29.59,NW,304,1.0,1.0,62,0.00,,BKN065,0.00,VWS V14.01,2013-03-03 17:30:00,
2013-03-03 12:35:00,39.7,27.4,29.58,NW,306,4.0,6.0,61,0.00,,BKN065,0.00,VWS V14.01,2013-03-03 17:35:00,
2013-03-03 12:40:00,39.7,27.4,29.58,SSW,196,1.0,2.0,61,0.00,,BKN065,0.00,VWS V14.01,2013-03-03 17:40:00,
2013-03-03 12:45:00,40.2,27.4,29.58,NNW,340,3.0,6.0,60,0.00,,BKN065,0.00,VWS V14.01,2013-03-03 17:45:00,
2013-03-03 12:50:00,40.0,27.2,29.58,West,281,3.0,6.0,60,0.00,,BKN065,0.00,VWS V14.01,2013-03-03 17:50:00,
2013-03-03 12:55:00,40.1,27.4,29.58,SSW,201,2.0,7.0,60,0.00,,BKN065,0.00,VWS V14.01,2013-03-03 17:55:00,
2013-03-03 13:00:00,40.3,27.1,29.58,WSW,243,0.0,3.0,59,0.00,,BKN065,0.00,VWS V14.01,2013-03-03 18:00:00,
2013-03-03 13:05:00,40.4,27.2,29.57,WSW,245,3.0,6.0,59,0.00,,BKN065,0.00,VWS V14.01,2013-03-03 18:05:00,
2013-03-03 13:10:00,40.1,26.9,29.57,ESE,114,1.0,2.0,59,0.00,,BKN065,0.00,VWS V14.01,2013-03-03 18:10:00,
2013-03-03 13:15:00,40.3,27.5,29.57,SSW,204,0.0,3.0,60,0.00,,BKN065,0.00,VWS V14.01,2013-03-03 18:15:00,
2013-03-03 13:20:00,40.4,27.6,29.57,WNW,288,1.0,4.0,60,0.00,,BKN065,0.00,VWS V14.01,2013-03-03 18:20:00,
2013-03-03 13:25:00,40.4,27.2,29.57,West,263,0.0,4.0,59,0.00,,BKN065,0.00,VWS V14.01,2013-03-03 18:25:00,
2013-03-03 13:30:00,40.2,27.4,29.56,WNW,302,3.0,5.0,60,0.00,,BKN065,0.00,VWS V14.01,2013-03-03 18:30:00,
2013-03-03 13:35:00,40.4,27.6,29.57,SSE,160,3.0,6.0,60,0.00,,BKN065,0.00,VWS V14.01,2013-03-03 18:35:00,
2013-03-03 13:40:00,40.5,27.7,29.57,West,277,2.0,4.0,60,0.00,,BKN065,0.00,VWS V14.01,2013-03-03 18:40:00,
2013-03-03 13:45:00,40.4,27.6,29.56,WNW,300,2.0,6.0,60,0.00,,BKN065,0.00,VWS V14.01,2013-03-03 18:45:00,
2013-03-03 13:50:00,40.4,27.6,29.57,WNW,285,1.0,3.0,60,0.00,,BKN065,0.00,VWS V14.01,2013-03-03 18:50:00,
2013-03-03 13:55:00,40.5,27.7,29.56,WSW,252,3.0,5.0,60,0.00,,BKN065,0.00,VWS V14.01,2013-03-03 18:55:00,
2013-03-03 14:00:00,40.6,27.4,29.57,West,264,2.0,3.0,59,0.00,,BKN055,0.00,VWS V14.01,2013-03-03 19:00:00,
2013-03-03 14:05:00,40.4,27.2,29.57,West,259,2.0,4.0,59,0.00,,BKN055,0.00,VWS V14.01,2013-03-03 19:05:00,
2013-03-03 14:10:00,40.5,27.3,29.57,West,269,0.0,1.0,59,0.00,,BKN055,0.00,VWS V14.01,2013-03-03 19:10:00,
2013-03-03 14:20:00,40.4,27.2,29.57,NW,308,3.0,7.0,59,0.00,,OVC085,0.00,VWS V14.01,2013-03-03 19:20:00,
2013-03-03 14:30:00,40.3,27.5,29.56,WSW,253,2.0,8.0,60,0.00,,OVC085,0.00,VWS V14.01,2013-03-03 19:30:00,
2013-03-03 14:39:00,40.3,27.5,29.56,WNW,283,4.0,6.0,60,0.00,,BKN055,0.00,VWS V14.01,2013-03-03 19:39:00,
2013-03-03 14:40:00,40.3,27.1,29.56,West,265,2.0,6.0,59,0.00,,OVC085,0.00,VWS V14.01,2013-03-03 19:40:00,
2013-03-03 14:44:00,40.3,27.1,29.56,SW,214,0.0,5.0,59,0.00,,BKN055,0.00,VWS V14.01,2013-03-03 19:44:00,
2013-03-03 14:49:00,40.6,27.8,29.56,West,274,2.0,5.0,60,0.00,,BKN055,0.00,VWS V14.01,2013-03-03 19:49:00,
2013-03-03 14:50:00,40.6,27.8,29.56,West,273,2.0,5.0,60,0.00,,OVC085,0.00,VWS V14.01,2013-03-03 19:50:00,
2013-03-03 14:54:00,40.8,28.0,29.56,SSW,207,3.0,4.0,60,0.00,,BKN055,0.00,VWS V14.01,2013-03-03 19:54:00,
2013-03-03 14:59:00,40.9,27.7,29.56,SSW,198,3.0,6.0,59,0.00,,BKN055,0.00,VWS V14.01,2013-03-03 19:59:00,
2013-03-03 15:00:00,40.9,27.7,29.56,West,263,2.0,6.0,59,0.00,,OVC085,0.00,VWS V14.01,2013-03-03 20:00:00,
2013-03-03 15:04:00,40.5,26.9,29.56,SW,225,1.0,7.0,58,0.00,,OVC050,0.00,VWS V14.01,2013-03-03 20:04:00,
2013-03-03 15:09:00,40.4,27.2,29.56,South,184,0.0,7.0,59,0.00,,OVC050,0.00,VWS V14.01,2013-03-03 20:09:00,
2013-03-03 15:10:00,40.4,27.6,29.56,SW,235,0.0,7.0,60,0.00,,OVC085,0.00,VWS V14.01,2013-03-03 20:10:00,
2013-03-03 15:14:00,40.4,27.6,29.56,SW,229,3.0,5.0,60,0.00,,OVC050,0.00,VWS V14.01,2013-03-03 20:14:00,
2013-03-03 15:19:00,40.2,27.4,29.56,SW,221,3.0,5.0,60,0.00,,OVC050,0.00,VWS V14.01,2013-03-03 20:19:00,
2013-03-03 15:20:00,40.2,27.4,29.56,SSW,194,1.0,5.0,60,0.00,,OVC085,0.00,VWS V14.01,2013-03-03 20:20:00,
2013-03-03 15:24:00,40.2,27.0,29.56,West,270,1.0,5.0,59,0.00,,OVC050,0.00,VWS V14.01,2013-03-03 20:24:00,
2013-03-03 15:29:00,40.0,28.4,29.56,West,273,2.0,6.0,63,0.00,,OVC050,0.00,VWS V14.01,2013-03-03 20:29:00,
2013-03-03 15:30:00,39.9,28.3,29.56,South,191,6.0,6.0,63,0.00,,OVC085,0.00,VWS V14.01,2013-03-03 20:30:00,
2013-03-03 15:34:00,39.4,29.0,29.56,SSE,155,5.0,6.0,66,0.00,,OVC050,0.00,VWS V14.01,2013-03-03 20:34:00,
2013-03-03 15:39:00,38.9,28.9,29.56,SW,218,6.0,9.0,67,0.00,,OVC050,0.00,VWS V14.01,2013-03-03 20:39:00,
2013-03-03 15:40:00,38.8,28.8,29.56,SSW,194,2.0,9.0,67,0.00,,OVC085,0.00,VWS V14.01,2013-03-03 20:40:00,
2013-03-03 15:44:00,38.4,28.8,29.56,SW,218,0.0,9.0,68,0.00,,OVC050,0.00,VWS V14.01,2013-03-03 20:44:00,
2013-03-03 15:49:00,38.4,28.8,29.56,South,188,6.0,9.0,68,0.00,,OVC050,0.00,VWS V14.01,2013-03-03 20:49:00,
2013-03-03 15:50:00,38.3,28.7,29.56,SSE,168,6.0,9.0,68,0.00,,OVC085,0.00,VWS V14.01,2013-03-03 20:50:00,
2013-03-03 15:54:00,38.2,28.9,29.56,SE,129,3.0,8.0,69,0.00,,OVC050,0.00,VWS V14.01,2013-03-03 20:54:00,
2013-03-03 15:59:00,38.1,29.2,29.56,SE,139,2.0,8.0,70,0.00,,OVC050,0.00,VWS V14.01,2013-03-03 20:59:00,
2013-03-03 16:00:00,38.0,29.1,29.56,WSW,239,4.0,8.0,70,0.00,,OVC085,0.00,VWS V14.01,2013-03-03 21:00:00,
2013-03-03 16:04:00,38.0,29.1,29.56,South,186,2.0,6.0,70,0.00,,OVC043,0.00,VWS V14.01,2013-03-03 21:04:00,
2013-03-03 16:09:00,38.0,29.1,29.56,WSW,250,3.0,7.0,70,0.00,,OVC043,0.00,VWS V14.01,2013-03-03 21:09:00,
2013-03-03 16:10:00,38.0,29.1,29.56,SSE,162,1.0,7.0,70,0.00,,OVC085,0.00,VWS V14.01,2013-03-03 21:10:00,
2013-03-03 16:14:00,38.0,29.1,29.56,SSW,208,1.0,5.0,70,0.00,,OVC043,0.00,VWS V14.01,2013-03-03 21:14:00,
2013-03-03 16:19:00,37.9,29.0,29.57,SW,218,6.0,8.0,70,0.00,,OVC043,0.00,VWS V14.01,2013-03-03 21:19:00,
2013-03-03 16:20:00,37.9,29.0,29.57,South,181,4.0,8.0,70,0.00,,OVC085,0.00,VWS V14.01,2013-03-03 21:20:00,
2013-03-03 16:24:00,37.7,29.2,29.57,SSW,208,1.0,7.0,71,0.00,,OVC043,0.00,VWS V14.01,2013-03-03 21:24:00,
2013-03-03 16:29:00,37.5,29.0,29.57,SSE,166,3.0,7.0,71,0.00,,OVC043,0.00,VWS V14.01,2013-03-03 21:29:00,
2013-03-03 16:30:00,37.5,29.0,29.57,SSE,158,4.0,7.0,71,0.00,,OVC085,0.00,VWS V14.01,2013-03-03 21:30:00,
2013-03-03 16:34:00,37.4,28.9,29.57,WSW,249,3.0,6.0,71,0.00,,OVC043,0.00,VWS V14.01,2013-03-03 21:34:00,
2013-03-03 16:39:00,37.3,28.8,29.57,South,184,2.0,7.0,71,0.00,,OVC043,0.00,VWS V14.01,2013-03-03 21:39:00,
2013-03-03 16:40:00,37.3,28.8,29.57,SW,217,0.0,7.0,71,0.00,,OVC085,0.00,VWS V14.01,2013-03-03 21:40:00,
2013-03-03 16:44:00,37.3,28.8,29.57,SW,229,1.0,4.0,71,0.00,,OVC043,0.00,VWS V14.01,2013-03-03 21:44:00,
2013-03-03 16:49:00,37.5,29.0,29.57,SW,215,2.0,4.0,71,0.00,,OVC043,0.00,VWS V14.01,2013-03-03 21:49:00,
2013-03-03 16:50:00,37.4,28.9,29.57,WSW,240,1.0,4.0,71,0.00,,OVC085,0.00,VWS V14.01,2013-03-03 21:50:00,
2013-03-03 16:54:00,37.4,28.9,29.57,South,188,3.0,5.0,71,0.00,,OVC043,0.00,VWS V14.01,2013-03-03 21:54:00,
2013-03-03 16:59:00,37.4,28.9,29.57,WSW,240,3.0,5.0,71,0.00,,OVC043,0.00,VWS V14.01,2013-03-03 21:59:00,
2013-03-03 17:00:00,37.4,28.9,29.57,WSW,240,3.0,5.0,71,0.00,,OVC085,0.00,VWS V14.01,2013-03-03 22:00:00,
2013-03-03 17:04:00,37.5,29.3,29.57,WSW,249,0.0,4.0,72,0.00,,OVC043,0.00,VWS V14.01,2013-03-03 22:04:00,
2013-03-03 17:09:00,37.5,29.0,29.57,SW,218,2.0,4.0,71,0.00,,OVC043,0.00,VWS V14.01,2013-03-03 22:09:00,
2013-03-03 17:10:00,37.5,29.0,29.57,SW,226,2.0,4.0,71,0.00,,OVC085,0.00,VWS V14.01,2013-03-03 22:10:00,
2013-03-03 17:14:00,37.4,29.2,29.57,West,264,0.0,4.0,72,0.00,,OVC043,0.00,VWS V14.01,2013-03-03 22:14:00,
2013-03-03 17:19:00,37.3,29.1,29.57,SE,146,0.0,4.0,72,0.00,,OVC043,0.00,VWS V14.01,2013-03-03 22:19:00,
2013-03-03 17:20:00,37.4,29.2,29.57,West,260,0.0,4.0,72,0.00,,OVC085,0.00,VWS V14.01,2013-03-03 22:20:00,
2013-03-03 17:24:00,37.4,29.2,29.57,SSE,168,0.0,2.0,72,0.00,,OVC043,0.00,VWS V14.01,2013-03-03 22:24:00,
2013-03-03 17:29:00,37.4,29.2,29.57,WSW,248,1.0,3.0,72,0.00,,OVC043,0.00,VWS V14.01,2013-03-03 22:29:00,
2013-03-03 17:30:00,37.4,29.2,29.57,SW,229,2.0,3.0,72,0.00,,OVC085,0.00,VWS V14.01,2013-03-03 22:30:00,
2013-03-03 17:34:00,37.4,29.2,29.57,WSW,253,0.0,3.0,72,0.00,,OVC043,0.00,VWS V14.01,2013-03-03 22:34:00,
2013-03-03 17:39:00,37.4,29.2,29.57,SSW,204,0.0,3.0,72,0.00,,OVC043,0.00,VWS V14.01,2013-03-03 22:39:00,
2013-03-03 17:40:00,37.5,29.3,29.57,SW,235,0.0,3.0,72,0.00,,OVC085,0.00,VWS V14.01,2013-03-03 22:40:00,
2013-03-03 17:44:00,37.5,29.3,29.57,SW,231,0.0,2.0,72,0.00,,OVC043,0.00,VWS V14.01,2013-03-03 22:44:00,
2013-03-03 17:49:00,37.5,29.3,29.57,SW,225,0.0,2.0,72,0.00,,OVC043,0.00,VWS V14.01,2013-03-03 22:49:00,
2013-03-03 17:50:00,37.5,29.3,29.57,SW,218,0.0,2.0,72,0.00,,OVC085,0.00,VWS V14.01,2013-03-03 22:50:00,
2013-03-03 17:54:00,37.6,29.1,29.57,WSW,249,1.0,3.0,71,0.00,,OVC043,0.00,VWS V14.01,2013-03-03 22:54:00,
2013-03-03 17:59:00,37.8,29.3,29.58,West,262,1.0,3.0,71,0.00,,OVC043,0.00,VWS V14.01,2013-03-03 22:59:00,
2013-03-03 18:00:00,37.8,29.2,29.58,West,264,1.0,3.0,71,0.00,,OVC085,0.00,VWS V14.01,2013-03-03 23:00:00,
2013-03-03 18:04:00,37.9,29.0,29.58,WSW,246,3.0,4.0,70,0.00,,OVC049,0.00,VWS V14.01,2013-03-03 23:04:00,
2013-03-03 18:10:00,37.9,29.0,29.58,West,270,1.0,4.0,70,0.00,,OVC085,0.00,VWS V14.01,2013-03-03 23:10:00,
2013-03-03 18:15:00,37.9,29.4,29.58,WSW,253,0.0,2.0,71,0.00,,OVC049,0.00,VWS V14.01,2013-03-03 23:15:00,
2013-03-03 18:20:00,37.9,29.4,29.58,West,272,0.0,1.0,71,0.00,,OVC049,0.00,VWS V14.01,2013-03-03 23:20:00,
2013-03-03 18:25:00,37.8,29.3,29.58,WNW,283,0.0,2.0,71,0.00,,OVC049,0.00,VWS V14.01,2013-03-03 23:25:00,
2013-03-03 18:30:00,37.8,29.3,29.58,WNW,290,2.0,2.0,71,0.00,,OVC049,0.00,VWS V14.01,2013-03-03 23:30:00,
2013-03-03 18:35:00,37.8,29.3,29.58,WNW,295,0.0,3.0,71,0.00,,OVC049,0.00,VWS V14.01,2013-03-03 23:35:00,
2013-03-03 18:40:00,37.8,29.3,29.58,WNW,287,2.0,2.0,71,0.00,,OVC049,0.00,VWS V14.01,2013-03-03 23:40:00,
2013-03-03 18:45:00,37.9,29.7,29.58,WNW,295,2.0,2.0,72,0.00,,OVC049,0.00,VWS V14.01,2013-03-03 23:45:00,
2013-03-03 18:50:00,37.9,29.4,29.58,WNW,300,0.0,1.0,71,0.00,,OVC049,0.00,VWS V14.01,2013-03-03 23:50:00,
2013-03-03 18:55:00,37.9,29.4,29.58,NW,306,1.0,3.0,71,0.00,,OVC049,0.00,VWS V14.01,2013-03-03 23:55:00,
2013-03-03 19:00:00,37.9,29.4,29.58,WNW,301,1.0,1.0,71,0.00,,OVC085,0.00,VWS V14.01,2013-03-04 00:00:00,
2013-03-03 19:05:00,37.9,29.4,29.58,WNW,285,3.0,6.0,71,0.00,,OVC085,0.00,VWS V14.01,2013-03-04 00:05:00,
2013-03-03 19:10:00,38.0,29.5,29.58,WNW,284,0.0,3.0,71,0.00,,OVC085,0.00,VWS V14.01,2013-03-04 00:10:00,
2013-03-03 19:15:00,38.0,29.5,29.58,NW,305,0.0,5.0,71,0.00,,OVC085,0.00,VWS V14.01,2013-03-04 00:15:00,
2013-03-03 19:20:00,37.9,29.4,29.58,WNW,302,9.0,9.0,71,0.00,,OVC085,0.00,VWS V14.01,2013-03-04 00:20:00,
2013-03-03 19:25:00,37.9,29.7,29.58,WNW,302,8.0,10.0,72,0.00,,OVC085,0.00,VWS V14.01,2013-03-04 00:25:00,
2013-03-03 19:30:00,37.8,29.6,29.59,West,272,5.0,9.0,72,0.00,,OVC085,0.00,VWS V14.01,2013-03-04 00:30:00,
2013-03-03 19:35:00,37.6,29.7,29.59,WNW,284,6.0,11.0,73,0.00,,OVC085,0.00,VWS V14.01,2013-03-04 00:35:00,
2013-03-03 19:40:00,37.3,29.5,29.59,WNW,292,7.0,8.0,73,0.00,,OVC085,0.00,VWS V14.01,2013-03-04 00:40:00,
2013-03-03 19:45:00,37.1,29.6,29.59,WNW,300,5.0,12.0,74,0.00,,OVC085,0.00,VWS V14.01,2013-03-04 00:45:00,
2013-03-03 19:50:00,36.8,29.6,29.60,West,280,5.0,11.0,75,0.00,,OVC085,0.00,VWS V14.01,2013-03-04 00:50:00,
2013-03-03 20:00:00,36.4,29.6,29.60,NNW,328,5.0,11.0,76,0.00,,OVC085,0.00,VWS V14.01,2013-03-04 01:00:00,
2013-03-03 20:05:00,36.1,29.3,29.60,NW,315,6.0,13.0,76,0.00,,OVC085,0.00,VWS V14.01,2013-03-04 01:05:00,
2013-03-03 20:10:00,36.0,29.5,29.60,WNW,287,5.0,7.0,77,0.00,,OVC085,0.00,VWS V14.01,2013-03-04 01:10:00,
2013-03-03 20:15:00,36.0,29.5,29.60,WNW,287,5.0,7.0,77,0.00,,OVC085,0.00,VWS V14.01,2013-03-04 01:15:00,
2013-03-03 20:20:00,36.0,29.5,29.60,WNW,287,5.0,7.0,77,0.00,,OVC085,0.00,VWS V14.01,2013-03-04 01:20:00,
2013-03-03 20:25:00,36.0,29.5,29.60,WNW,287,5.0,7.0,77,0.00,,OVC085,0.00,VWS V14.01,2013-03-04 01:25:00,
2013-03-03 20:30:00,36.0,29.5,29.60,WNW,287,5.0,7.0,77,0.00,,OVC085,0.00,VWS V14.01,2013-03-04 01:30:00,
2013-03-03 20:35:00,36.0,29.5,29.60,WNW,287,5.0,7.0,77,0.00,,OVC085,0.00,VWS V14.01,2013-03-04 01:35:00,
2013-03-03 20:40:00,36.0,29.5,29.60,WNW,287,5.0,7.0,77,0.00,,OVC085,0.00,VWS V14.01,2013-03-04 01:40:00,
2013-03-03 20:45:00,36.0,29.5,29.60,WNW,287,5.0,7.0,77,0.00,,OVC085,0.00,VWS V14.01,2013-03-04 01:45:00,
2013-03-03 20:50:00,36.0,29.5,29.60,WNW,287,5.0,7.0,77,0.00,,OVC085,0.00,VWS V14.01,2013-03-04 01:50:00,
2013-03-03 20:55:00,36.0,29.5,29.60,WNW,287,5.0,7.0,77,0.00,,OVC085,0.00,VWS V14.01,2013-03-04 01:55:00,
2013-03-03 21:00:00,36.0,29.5,29.60,WNW,287,5.0,7.0,77,0.00,,OVC085,0.00,VWS V14.01,2013-03-04 02:00:00,
2013-03-03 21:05:00,36.0,29.5,29.60,WNW,287,5.0,7.0,77,0.00,,OVC085,0.00,VWS V14.01,2013-03-04 02:05:00,
2013-03-03 21:10:00,36.0,29.5,29.60,WNW,287,5.0,7.0,77,0.00,,OVC085,0.00,VWS V14.01,2013-03-04 02:10:00,
2013-03-03 21:15:00,36.0,29.5,29.60,WNW,287,5.0,7.0,77,0.00,,OVC085,0.00,VWS V14.01,2013-03-04 02:15:00,
2013-03-03 21:20:00,36.0,29.5,29.60,WNW,287,5.0,7.0,77,0.00,,OVC085,0.00,VWS V14.01,2013-03-04 02:20:00,
2013-03-03 21:25:00,36.0,29.5,29.60,WNW,287,5.0,7.0,77,0.00,,OVC085,0.00,VWS V14.01,2013-03-04 02:25:00,
2013-03-03 21:30:00,36.0,29.5,29.60,WNW,287,5.0,7.0,77,0.00,,OVC085,0.00,VWS V14.01,2013-03-04 02:30:00,
2013-03-03 21:35:00,36.0,29.5,29.60,WNW,287,5.0,7.0,77,0.00,,OVC085,0.00,VWS V14.01,2013-03-04 02:35:00,
2013-03-03 21:40:00,36.0,29.5,29.60,WNW,287,5.0,7.0,77,0.00,,OVC085,0.00,VWS V14.01,2013-03-04 02:40:00,
2013-03-03 21:45:00,36.0,29.5,29.60,WNW,287,5.0,7.0,77,0.00,,OVC085,0.00,VWS V14.01,2013-03-04 02:45:00,
2013-03-03 21:50:00,36.0,29.5,29.60,WNW,287,5.0,7.0,77,0.00,,OVC085,0.00,VWS V14.01,2013-03-04 02:50:00,
2013-03-03 21:55:00,36.0,29.5,29.60,WNW,287,5.0,7.0,77,0.00,,OVC085,0.00,VWS V14.01,2013-03-04 02:55:00,
2013-03-03 22:00:00,36.0,29.5,29.60,WNW,287,5.0,7.0,77,0.00,,OVC085,0.00,VWS V14.01,2013-03-04 03:00:00,
2013-03-03 22:05:00,36.0,29.5,29.60,WNW,287,5.0,7.0,77,0.00,,OVC085,0.00,VWS V14.01,2013-03-04 03:05:00,
2013-03-03 22:10:00,36.0,29.5,29.60,WNW,287,5.0,7.0,77,0.00,,OVC085,0.00,VWS V14.01,2013-03-04 03:10:00,
2013-03-03 22:15:00,36.0,29.5,29.60,WNW,287,5.0,7.0,77,0.00,,OVC085,0.00,VWS V14.01,2013-03-04 03:15:00,
2013-03-03 22:20:00,36.0,29.5,29.60,WNW,287,5.0,7.0,77,0.00,,OVC085,0.00,VWS V14.01,2013-03-04 03:20:00,
2013-03-03 22:25:00,36.0,29.5,29.60,WNW,287,5.0,7.0,77,0.00,,OVC085,0.00,VWS V14.01,2013-03-04 03:25:00,
2013-03-03 22:30:00,36.0,29.5,29.60,WNW,287,5.0,7.0,77,0.00,,OVC085,0.00,VWS V14.01,2013-03-04 03:30:00,
2013-03-03 22:35:00,36.0,29.5,29.60,WNW,287,5.0,7.0,77,0.00,,OVC085,0.00,VWS V14.01,2013-03-04 03:35:00,
2013-03-03 22:40:00,36.0,29.5,29.60,WNW,287,5.0,7.0,77,0.00,,OVC085,0.00,VWS V14.01,2013-03-04 03:40:00,
2013-03-03 22:45:00,36.0,29.5,29.60,WNW,287,5.0,7.0,77,0.00,,OVC085,0.00,VWS V14.01,2013-03-04 03:45:00,
2013-03-03 22:50:00,36.0,29.5,29.60,WNW,287,5.0,7.0,77,0.00,,OVC085,0.00,VWS V14.01,2013-03-04 03:50:00,
2013-03-03 22:55:00,36.0,29.5,29.60,WNW,287,5.0,7.0,77,0.00,,OVC085,0.00,VWS V14.01,2013-03-04 03:55:00,
2013-03-03 23:00:00,36.0,29.5,29.60,WNW,287,5.0,7.0,77,0.00,,OVC085,0.00,VWS V14.01,2013-03-04 04:00:00,
2013-03-03 23:05:00,36.0,29.5,29.60,WNW,287,5.0,7.0,77,0.00,,OVC085,0.00,VWS V14.01,2013-03-04 04:05:00,
2013-03-03 23:10:00,36.0,29.5,29.60,WNW,287,5.0,7.0,77,0.00,,OVC085,0.00,VWS V14.01,2013-03-04 04:10:00,
2013-03-03 23:15:00,36.0,29.5,29.60,WNW,287,5.0,7.0,77,0.00,,OVC085,0.00,VWS V14.01,2013-03-04 04:15:00,
2013-03-03 23:20:00,36.0,29.5,29.60,WNW,287,5.0,7.0,77,0.00,,OVC085,0.00,VWS V14.01,2013-03-04 04:20:00,
2013-03-03 23:25:00,36.0,29.5,29.60,WNW,287,5.0,7.0,77,0.00,,OVC085,0.00,VWS V14.01,2013-03-04 04:25:00,
2013-03-03 23:30:00,36.0,29.5,29.60,WNW,287,5.0,7.0,77,0.00,,OVC085,0.00,VWS V14.01,2013-03-04 04:30:00,
2013-03-03 23:35:00,36.0,29.5,29.60,WNW,287,5.0,7.0,77,0.00,,OVC085,0.00,VWS V14.01,2013-03-04 04:35:00,
2013-03-03 23:40:00,36.0,29.5,29.60,WNW,287,5.0,7.0,77,0.00,,OVC085,0.00,VWS V14.01,2013-03-04 04:40:00,
2013-03-03 23:45:00,36.0,29.5,29.60,WNW,287,5.0,7.0,77,0.00,,OVC085,0.00,VWS V14.01,2013-03-04 04:45:00,
2013-03-03 23:50:00,36.0,29.5,29.60,WNW,287,5.0,7.0,77,0.00,,OVC085,0.00,VWS V14.01,2013-03-04 04:50:00,
2013-03-03 23:55:00,36.0,29.5,29.60,WNW,287,5.0,7.0,77,0.00,,OVC085,0.00,VWS V14.01,2013-03-04 04:55:00,